Weather History for New York, NY

Change the Weather History Date:

Tuesday, September 27, 2011

  Actual Average Record
Temperature  
Mean Temperature 73 °F 65 °F  
Max Temperature 77 °F 72 °F 90 °F (1998)
Min Temperature 68 °F 58 °F 43 °F (1947)
Degree Days  
Heating Degree Days 0 3  
Month to date heating degree days 19 23  
Since 1 July heating degree days 19 24  
Cooling Degree Days 8 3  
Month to date cooling degree days 183 153  
Year to date cooling degree days 1336 1186  
Growing Degree Days 22 (Base 50)    
Moisture  
Dew Point 66 °F    
Average Humidity 83    
Maximum Humidity 97    
Minimum Humidity 69    
Precipitation  
Precipitation T in 0.13 in 2.72 in (1985)
Month to date precipitation 6.44 3.31  
Year to date precipitation 52.84 33.56  
Snow  
Snow 0.00 in 0.00 in - ()
Month to date snowfall 0.0 0.0  
Since 1 July snowfall 0.0 0.0  
Snow Depth 0.00 in    
Sea Level Pressure  
Sea Level Pressure 29.96 in    
Wind  
Wind Speed 7 mph (ESE)    
Max Wind Speed 13 mph    
Max Gust Speed 16 mph    
Visibility 6 miles    
Events      
T = Trace of Precipitation, MM = Missing Value Source: NWS Daily Summary

Daily Weather History Graph

Daily Weather History Graph

Search for Another Location

Airport:

Trip Planner

Search our weather history database for the weather conditions in past years. The results will help you decide how hot, cold, wet, or windy it might be!

Date:

Astronomy

Sep. 27, 2011 Rise Set
Actual Time 6:47 AM EDT 6:44 PM EDT
Civil Twilight 6:20 AM EDT 7:12 PM EDT
Nautical Twilight 5:48 AM EDT 7:43 PM EDT
Astronomical Twilight 5:16 AM EDT 8:16 PM EDT
Moon 6:59 AM EDT (9/27) 6:33 PM EDT (9/27)
Length of Visible Light 12h 51m
Length of Day
11h 57m
New Moon, 0% of the Moon is Illuminated
Sep 27
New Moon
Oct 3
First Quarter
Oct 11
Full
Oct 19
Last Quarter
Oct 26
New

Hourly Weather History & Observations

Time (EDT) Temp. Dew Point Humidity Pressure Visibility Wind Dir Wind Speed Gust Speed Precip Events Conditions
12:51 AM 71.1 °F 66.9 °F 87% 29.94 in 10.0 mi South 4.6 mph - N/A   Scattered Clouds
1:51 AM 70.0 °F 66.0 °F 87% 29.95 in 8.0 mi South 6.9 mph - N/A   Scattered Clouds
2:02 AM 69.8 °F 66.2 °F 88% 29.95 in 5.0 mi South 8.1 mph - N/A   Mostly Cloudy
2:43 AM 69.8 °F 66.2 °F 88% 29.95 in 0.1 mi South 5.8 mph - N/A   Overcast
2:51 AM 69.1 °F 66.9 °F 93% 29.95 in 0.1 mi South 5.8 mph - N/A   Overcast
3:51 AM 69.1 °F 66.9 °F 93% 29.96 in 0.1 mi South 6.9 mph - N/A   Overcast
4:17 AM 69.8 °F 66.2 °F 88% 29.95 in 0.1 mi SSE 4.6 mph - N/A   Overcast
4:48 AM 69.8 °F 68.0 °F 94% 29.95 in 4.0 mi Calm Calm - N/A   Overcast
4:51 AM 69.1 °F 68.0 °F 96% 29.95 in 4.0 mi Calm Calm - N/A   Overcast
5:29 AM 69.8 °F 66.2 °F 88% 29.95 in 8.0 mi ESE 3.5 mph - N/A   Overcast
5:51 AM 70.0 °F 66.9 °F 90% 29.96 in 8.0 mi Calm Calm - N/A   Overcast
6:17 AM 69.8 °F 66.2 °F 88% 29.95 in 10.0 mi ENE 5.8 mph - N/A   Overcast
6:51 AM 69.1 °F 66.9 °F 93% 29.95 in 8.0 mi NE 4.6 mph - N/A   Mostly Cloudy
7:19 AM 69.8 °F 66.2 °F 88% 29.95 in 5.0 mi ENE 5.8 mph - N/A   Scattered Clouds
7:43 AM 69.8 °F 66.2 °F 88% 29.95 in 4.0 mi East 8.1 mph - N/A   Mostly Cloudy
7:51 AM 70.0 °F 66.9 °F 90% 29.96 in 3.0 mi East 6.9 mph - N/A   Mostly Cloudy
7:58 AM 69.8 °F 66.2 °F 88% 29.96 in 3.0 mi ENE 4.6 mph - N/A   Overcast
8:51 AM 70.0 °F 66.9 °F 90% 29.97 in 3.0 mi NE 4.6 mph - N/A   Mostly Cloudy
9:19 AM 69.8 °F 66.2 °F 88% 29.97 in 2.0 mi NE 3.5 mph - N/A   Mostly Cloudy
9:51 AM 72.0 °F 68.0 °F 87% 29.99 in 3.0 mi North 4.6 mph - N/A   Scattered Clouds
10:51 AM 73.9 °F 66.9 °F 79% 29.98 in 7.0 mi NE 9.2 mph - N/A   Mostly Cloudy
11:51 AM 73.9 °F 68.0 °F 82% 29.97 in 5.0 mi NE 9.2 mph - N/A   Haze
12:51 PM 73.9 °F 66.9 °F 79% 29.96 in 6.0 mi NE 9.2 mph - N/A   Haze
1:51 PM 75.0 °F 66.9 °F 76% 29.95 in 7.0 mi ENE 9.2 mph - N/A   Overcast
2:51 PM 73.9 °F 66.9 °F 79% 29.95 in 8.0 mi ENE 8.1 mph - N/A   Mostly Cloudy
3:51 PM 73.9 °F 66.0 °F 76% 29.95 in 10.0 mi South 9.2 mph - N/A   Overcast
4:51 PM 75.0 °F 64.0 °F 69% 29.93 in 10.0 mi SE 8.1 mph - N/A   Mostly Cloudy
5:51 PM 73.9 °F 64.0 °F 71% 29.95 in 10.0 mi ESE 10.4 mph - N/A   Mostly Cloudy
6:07 PM 71.6 °F 64.4 °F 78% 29.96 in 10.0 mi SSE 9.2 mph - N/A   Overcast
6:47 PM 71.6 °F 64.4 °F 78% 29.97 in 7.0 mi SE 9.2 mph - N/A   Overcast
6:51 PM 71.1 °F 64.9 °F 81% 29.98 in 7.0 mi SE 8.1 mph - N/A   Overcast
7:51 PM 70.0 °F 64.0 °F 81% 29.98 in 7.0 mi SSE 9.2 mph - N/A   Overcast
8:06 PM 69.8 °F 64.4 °F 83% 29.98 in 7.0 mi SSE 9.2 mph - N/A   Mostly Cloudy
8:51 PM 70.0 °F 64.0 °F 81% 29.98 in 7.0 mi ESE 5.8 mph - N/A   Mostly Cloudy
9:46 PM 69.8 °F 64.4 °F 83% 29.98 in 7.0 mi East 9.2 mph - N/A   Overcast
9:51 PM 69.1 °F 64.0 °F 84% 29.98 in 7.0 mi East 8.1 mph - N/A   Overcast
10:51 PM 69.8 °F 64.4 °F 83% 29.98 in 10.0 mi ESE 8.1 mph - N/A   Overcast
11:49 PM 69.8 °F 64.4 °F 83% 29.98 in 10.0 mi East 9.2 mph - 0.00 in   Light Drizzle
11:51 PM 69.1 °F 64.9 °F 87% 29.98 in 10.0 mi East 9.2 mph - 0.00 in   Light Drizzle